• In Hungary
  • List of Countries
  • For 7 days
  • Water Temperature
  • Satellite Maps
  • Weather Map
  • News
  • Weather Widgets
  • user-avatar
    Login

    Hourly Weather Armagh

    Today, 20 November, Monday

    Time Temperature Precipitation Wind Pressure Humidity
    00:00 +9°C° 0 mm 7 mps 753 mmHg 94%
    01:00 +9°C° 0.2 mm 6 mps 753 mmHg 94%
    02:00 +10°C° 0.2 mm 6 mps 752 mmHg 94%
    03:00 +10°C° 0.2 mm 5 mps 752 mmHg 94%
    04:00 +10°C° 0.1 mm 5 mps 752 mmHg 94%
    05:00 +12°C° 0.1 mm 5 mps 751 mmHg 94%
    06:00 +11°C° 0 mm 4 mps 751 mmHg 93%
    07:00 +11°C° 0.1 mm 4 mps 751 mmHg 92%
    08:00 +10°C° 0.1 mm 5 mps 751 mmHg 92%
    09:00 +10°C° 0.1 mm 6 mps 751 mmHg 91%
    10:00 +12°C° 0 mm 5 mps 751 mmHg 90%
    11:00 +12°C° 0 mm 5 mps 751 mmHg 89%
    12:00 +12°C° 0 mm 5 mps 752 mmHg 88%
    13:00 +12°C° 0 mm 5 mps 752 mmHg 89%
    14:00 +12°C° 0 mm 4 mps 751 mmHg 89%
    15:00 +12°C° 0 mm 3 mps 751 mmHg 89%
    16:00 +12°C° 0.1 mm 3 mps 751 mmHg 92%
    17:00 +11°C° 0.1 mm 3 mps 751 mmHg 94%
    18:00 +12°C° 0.1 mm 2 mps 751 mmHg 96%
    19:00 +12°C° 0.7 mm 2 mps 751 mmHg 96%
    20:00 +12°C° 0.7 mm 2 mps 751 mmHg 97%
    21:00 +12°C° 0.7 mm 3 mps 751 mmHg 97%
    22:00 +12°C° 0.3 mm 3 mps 750 mmHg 96%
    23:00 +12°C° 0.3 mm 4 mps 750 mmHg 96%

    Tomorrow, 21 November, Tuesday

    Time Temperature Precipitation Wind Pressure Humidity
    00:00 +13°C° 0.3 mm 4 mps 750 mmHg 95%
    01:00 +13°C° 0.2 mm 5 mps 750 mmHg 95%
    02:00 +13°C° 0.2 mm 5 mps 749 mmHg 94%
    03:00 +13°C° 0.2 mm 5 mps 749 mmHg 94%
    04:00 +13°C° 0.1 mm 5 mps 748 mmHg 94%
    05:00 +13°C° 0.1 mm 4 mps 748 mmHg 94%
    06:00 +13°C° 0.1 mm 4 mps 748 mmHg 95%
    07:00 +12°C° 0.1 mm 4 mps 747 mmHg 94%
    08:00 +12°C° 0.1 mm 4 mps 747 mmHg 94%
    09:00 +12°C° 0.1 mm 5 mps 746 mmHg 93%
    10:00 +12°C° 0.7 mm 5 mps 745 mmHg 93%
    11:00 +12°C° 0.7 mm 5 mps 744 mmHg 93%
    12:00 +12°C° 0.7 mm 5 mps 743 mmHg 93%
    13:00 +12°C° 0.6 mm 5 mps 743 mmHg 93%
    14:00 +13°C° 0.6 mm 5 mps 742 mmHg 93%
    15:00 +13°C° 0.6 mm 5 mps 741 mmHg 93%
    16:00 +13°C° 0 mm 5 mps 741 mmHg 93%
    17:00 +13°C° 0 mm 5 mps 741 mmHg 93%
    18:00 +13°C° 0 mm 5 mps 740 mmHg 93%
    19:00 +13°C° 0.2 mm 5 mps 740 mmHg 93%
    20:00 +13°C° 0.2 mm 5 mps 739 mmHg 92%
    21:00 +13°C° 0.2 mm 6 mps 739 mmHg 92%
    22:00 +11°C° 0.1 mm 6 mps 738 mmHg 92%
    23:00 +12°C° 0.1 mm 5 mps 738 mmHg 92%

    Day after tomorrow, 22 November, Wednesday

    Time Temperature Precipitation Wind Pressure Humidity
    00:00 +10°C° 0.1 mm 5 mps 737 mmHg 92%
    01:00 +10°C° 0 mm 5 mps 737 mmHg 92%
    02:00 +10°C° 0 mm 5 mps 737 mmHg 92%
    03:00 +10°C° 0 mm 4 mps 737 mmHg 93%
    04:00 +10°C° 0.1 mm 4 mps 737 mmHg 93%
    05:00 +10°C° 0.1 mm 3 mps 737 mmHg 94%
    06:00 +10°C° 0.1 mm 3 mps 736 mmHg 94%
    07:00 +9°C° 0.1 mm 2 mps 736 mmHg 95%
    08:00 +9°C° 0.1 mm 2 mps 735 mmHg 95%
    09:00 +10°C° 0.1 mm 1 mps 735 mmHg 96%
    10:00 +10°C° 0.2 mm 1 mps 734 mmHg 94%
    11:00 +10°C° 0.2 mm 1 mps 734 mmHg 93%
    12:00 +11°C° 0.2 mm 1 mps 733 mmHg 92%
    13:00 +10°C° 0.3 mm 1 mps 733 mmHg 93%
    14:00 +9°C° 0.3 mm 2 mps 732 mmHg 93%
    15:00 +9°C° 0.3 mm 2 mps 731 mmHg 94%
    16:00 +9°C° 0.9 mm 2 mps 731 mmHg 94%
    17:00 +9°C° 0.9 mm 2 mps 730 mmHg 95%
    18:00 +8°C° 0.9 mm 3 mps 729 mmHg 95%
    19:00 +8°C° 0.1 mm 3 mps 729 mmHg 95%
    20:00 +8°C° 0.1 mm 3 mps 729 mmHg 95%
    21:00 +8°C° 0.1 mm 3 mps 729 mmHg 95%
    22:00 +7°C° 0.1 mm 4 mps 729 mmHg 92%
    23:00 +7°C° 0.1 mm 5 mps 729 mmHg 90%

    23 November, Thursday

    Time Temperature Precipitation Wind Pressure Humidity
    00:00 +6°C° 0.1 mm 7 mps 730 mmHg 88%
    01:00 +5°C° 0.1 mm 7 mps 730 mmHg 86%
    02:00 +4°C° 0.1 mm 7 mps 731 mmHg 84%
    03:00 +3°C° 0.1 mm 7 mps 731 mmHg 82%
    04:00 +3°C° 0 mm 7 mps 732 mmHg 80%
    05:00 +2°C° 0 mm 8 mps 732 mmHg 77%
    06:00 +2°C° 0 mm 9 mps 732 mmHg 75%
    07:00 +2°C° 0 mm 9 mps 732 mmHg 73%
    08:00 +3°C° 0 mm 9 mps 733 mmHg 71%
    09:00 +3°C° 0 mm 10 mps 733 mmHg 69%
    10:00 +5°C° 0 mm 10 mps 734 mmHg 68%
    11:00 +4°C° 0 mm 11 mps 734 mmHg 68%
    12:00 +6°C° 0 mm 11 mps 735 mmHg 67%
    13:00 +6°C° 0.1 mm 10 mps 736 mmHg 70%
    14:00 +6°C° 0.1 mm 9 mps 737 mmHg 73%
    15:00 +5°C° 0.1 mm 8 mps 739 mmHg 75%
    16:00 +4°C° 0 mm 6 mps 740 mmHg 78%
    17:00 +3°C° 0 mm 5 mps 741 mmHg 82%
    18:00 +3°C° 0 mm 3 mps 742 mmHg 85%
    19:00 +3°C° 0 mm 3 mps 743 mmHg 86%
    20:00 +2°C° 0 mm 3 mps 744 mmHg 87%
    21:00 +3°C° 0 mm 2 mps 745 mmHg 89%
    22:00 +3°C° 0 mm 2 mps 745 mmHg 89%
    23:00 +2°C° 0 mm 2 mps 745 mmHg 88%

    24 November, Friday

    Time Temperature Precipitation Wind Pressure Humidity
    00:00 +3°C° 0 mm 1 mps 746 mmHg 88%
    01:00 +3°C° 0 mm 1 mps 746 mmHg 88%
    02:00 +3°C° 0 mm 1 mps 745 mmHg 88%
    03:00 +3°C° 0 mm 1 mps 745 mmHg 89%
    04:00 +3°C° 0.4 mm 1 mps 745 mmHg 88%
    05:00 +4°C° 0.4 mm 1 mps 745 mmHg 88%
    06:00 +3°C° 0.4 mm 2 mps 746 mmHg 88%
    07:00 +3°C° 0.6 mm 2 mps 746 mmHg 88%
    08:00 +3°C° 0.6 mm 2 mps 746 mmHg 88%
    09:00 +3°C° 0.6 mm 2 mps 747 mmHg 89%
    10:00 +3°C° 0.1 mm 3 mps 747 mmHg 85%
    11:00 +4°C° 0.1 mm 3 mps 747 mmHg 82%
    12:00 +4°C° 0.1 mm 3 mps 748 mmHg 78%
    13:00 +4°C° 0 mm 3 mps 748 mmHg 78%
    14:00 +4°C° 0 mm 4 mps 748 mmHg 77%
    15:00 +4°C° 0 mm 4 mps 748 mmHg 77%
    16:00 +1°C° 0 mm 4 mps 749 mmHg 78%
    17:00 0°C° 0 mm 4 mps 750 mmHg 79%
    18:00 0°C° 0 mm 3 mps 750 mmHg 81%
    19:00 0°C° 0 mm 3 mps 751 mmHg 81%
    20:00 0°C° 0 mm 3 mps 751 mmHg 81%
    21:00 -1°C° 0 mm 3 mps 752 mmHg 81%
    22:00 0°C° 0 mm 3 mps 752 mmHg 81%
    23:00 -1°C° 0 mm 4 mps 752 mmHg 81%

    25 November, Saturday

    Time Temperature Precipitation Wind Pressure Humidity
    00:00 -1°C° 0 mm 4 mps 753 mmHg 80%
    01:00 -1°C° 0 mm 4 mps 753 mmHg 81%
    02:00 -1°C° 0 mm 4 mps 753 mmHg 81%
    03:00 -1°C° 0 mm 4 mps 754 mmHg 82%
    04:00 -1°C° 0 mm 4 mps 754 mmHg 81%
    05:00 -1°C° 0 mm 4 mps 754 mmHg 81%
    06:00 -1°C° 0 mm 4 mps 755 mmHg 80%
    07:00 -1°C° 0 mm 4 mps 755 mmHg 79%
    08:00 -1°C° 0 mm 5 mps 756 mmHg 78%
    09:00 0°C° 0 mm 5 mps 756 mmHg 77%
    10:00 0°C° 0 mm 5 mps 757 mmHg 73%
    11:00 +1°C° 0 mm 6 mps 757 mmHg 69%
    12:00 +2°C° 0 mm 6 mps 758 mmHg 64%
    13:00 +2°C° 0.1 mm 6 mps 758 mmHg 66%
    14:00 +2°C° 0.1 mm 6 mps 758 mmHg 68%
    15:00 +1°C° 0.1 mm 5 mps 759 mmHg 69%
    16:00 +1°C° 0 mm 5 mps 759 mmHg 72%
    17:00 0°C° 0 mm 5 mps 760 mmHg 74%
    18:00 -1°C° 0 mm 5 mps 760 mmHg 76%
    19:00 -1°C° 0 mm 5 mps 761 mmHg 77%
    20:00 -1°C° 0 mm 5 mps 761 mmHg 77%
    21:00 -1°C° 0 mm 5 mps 761 mmHg 77%
    22:00 -1°C° 0 mm 5 mps 762 mmHg 78%
    23:00 -1°C° 0 mm 5 mps 762 mmHg 79%
    Show more